www.pogodaiklimat.ru

Погода и климат >> Архив погоды >> Казахстан >> Алматы


АРХИВ ПОГОДЫ в Алматы

Время (UTC), дата Ветер
(напр.,м/с)
 
Видим.   Явления Облачность Т
(С)
Тd
(С)
f
(%)
Тe
(С)
Тes
(С)
Комфортность P
(гПа)
Po
(гПа)
Тmin
(С)
Tmax
(С)
R
(мм)
R24
(мм)
S
(см)
18 11.06 штиль 0 н/о 10/6 600 м
[Cb cap Ac As]
+19.9 +13.3 66 +22 +22 комфорт 1005.8 912.6 +28.5 0.0
21 11.06 штиль 0 н/о {ливн. осадки} 10/10 600 м
[Cb cap]
+20.5 +9.6 50 +22 +22 комфорт 1004.8 911.8
00 12.06 штиль 0
{7}
10 км {ливн. осадки} 10/8 600 м
[Cb cap Ac As]
+18.9 +10.7 59 +20 +20 тепло 1005.5 912.0
03 12.06 штиль 0 20 км 8/3 1000 м
[Sc diur, vesp Ac trans]
+23.6 +12.3 49 +25 +30 комфорт 1003.9 911.9
06 12.06 ЮВ 1 10 км 3/1 1000 м
[Cu med, cong Ac trans]
+27.1 +12.5 40 +29 +46 жарко 1002.9 911.2 +18.9 0.0
09 12.06 ЮВ 2 10 км 6/5 1000 м
[Cu hum Ci fib]
+29.0 +11.0 33 +30 +37 жарко 1000.6 910.5
12 12.06 штиль 0 10 км 8/8 1000 м
[Cu hum]
+27.7 +9.0 31 +28 +29 жарко 1001.3 910.7
15 12.06 штиль 0 10 км 10/8 600 м
[Cb cap Ac trans]
+23.4 +12.6 51 +26 +26 жарко 1005.8 913.6 +29.2
18 12.06 ЮЗ 1 н/о {ливн. осадки} 8/6 600 м
[Cb cap Ac trans]
+20.2 +10.0 52 +23 +23 комфорт 1005.7 912.5 +29.2
21 12.06 Ю 1 н/о 4/0
[Ac trans]
+17.9 +10.8 63 +19 +19 по сезону 1005.8 911.9
00 13.06 штиль 0
{12}
20 км ясно +18.7 +8.3 51 +19 +19 тепло 1005.8 912.1
03 13.06 ЮВ 2 20 км ясно +26.5 +10.8 37 +27 +36 жарко 1002.7 911.7
06 13.06 штиль 0 20 км 3/1 1000 м
[Cu hum Ci fib]
+27.5 +11.1 36 +28 +50 жарко 1001.5 910.9 +16.3 0.0
09 13.06 штиль 0 10 км 6/3 1000 м
[Cu hum Ci ing]
+29.0 +9.5 30 +29 +42 жарко 999.5 909.4
12 13.06 Ю 1 10 км 6/3 1000 м
[Cu med, cong Ci fib]
+28.8 +10.5 32 +29 +32 жарко 999.1 909.0
15 13.06 ЮВ 1 10 км 9/8 600 м
[Cb cap Ac As]
+26.3 +13.3 45 +28 +28 жарко 1001.1 910.2 +29.7
18 13.06 С 1 н/о в посл. час ливневой дождь 8/6 600 м
[Cb cap Ac As]
+24.6 +9.2 38 +25 +25 комфорт 1002.1 910.5 +29.7
21 13.06 ЮЗ 1 н/о 10/8 600 м
[Cb cap Ac As]
+23.8 +8.5 38 +24 +24 комфорт 1002.7 910.8
00 14.06 ЮЗ 1
{4}
10 км 6/3 1000 м
[Sc diur, vesp Ac cast Cc]
+19.2 +8.0 48 +21 +21 комфорт 1007.2 913.6
03 14.06 ЮЗ 1 20 км 8/0
[Ci ing]
+21.0 +9.3 47 +24 +32 комфорт 1007.2 914.1
06 14.06 штиль 0 10 км 8/3 1000 м
[Cu hum Ac cast Ci fib]
+25.0 +11.1 42 +26 +38 жарко 1005.3 913.6 +19.2 0.0
09 14.06 штиль 0 10 км 9/6 600 м
[Cb cap Ac As]
+25.7 +9.1 35 +26 +30 жарко 1004.7 913.2
12 14.06 штиль 0 10 км слабый ливневой дождь 10/10 600 м
[Cb cap]
+21.8 +13.8 60 +25 +25 комфорт 1006.7 914.1
15 14.06 В 1 10 км {ливн. осадки} 10/10 600 м
[Cb cap]
+19.5 +13.2 67 +22 +22 комфорт 1008.7 915.1 +27.3
18 14.06 штиль 0 н/о {ливн. осадки} 10/8 600 м
[Cb cap Ac trans]
+19.2 +11.7 62 +20 +20 по сезону 1007.9 914.2 +27.3 1
21 14.06 штиль 0 н/о ясно +17.3 +11.5 69 +17 +17 по сезону 1006.5 912.4
00 15.06 штиль 0
{6}
10 км 10/0
[Ac trans Ci fib]
+16.0 +11.6 75 +16 +16 по сезону 1007.3 912.7
03 15.06 штиль 0 20 км 8/1 1000 м
[Cu hum Ci fib]
+21.5 +11.5 53 +24 +32 комфорт 1005.1 912.4
06 15.06 штиль 0 10 км 9/5 600 м
[Cb cap Ac trans Ci ing]
+25.0 +11.1 42 +26 +34 жарко 1003.6 912.1 +16.0
09 15.06 ЮЗ 2 10 км слабый ливневой дождь 10/10 600 м
[Cb cap]
+20.5 +12.3 59 +23 +23 комфорт 1006.5 913.4
12 15.06 ЮВ 1 10 км в посл. час ливневой дождь 10/10 600 м
[Cb cap]
+19.3 +9.9 54 +21 +21 комфорт 1010.9 917.0
15 15.06 штиль 0 10 км слабый ливневой дождь 10/8 600 м
[Cb cap Ac As]
+17.0 +6.5 50 +17 +17 холодно 1013.0 918.0 +25.8
18 15.06 ЮЗ 1 н/о слабый ливневой дождь 10/10 600 м
[Cb cap]
+15.9 +10.0 68 +17 +17 прохладно 1014.0 918.7 +25.8 0.4
21 15.06 штиль 0 н/о слабый ливневой дождь 10/8 600 м
[Cb cap Ac As]
+14.8 +9.2 69 +15 +15 прохладно 1014.4 918.7
00 16.06 С 1
{4}
10 км слабый ливневой дождь 10/8 600 м
[Cb cap Ac As]
+14.5 +12.0 85 +15 +15 прохладно 1014.4 918.7
03 16.06 штиль 0 10 км {ливн. осадки} 10/10 600 м
[Cb cap]
+16.6 +11.5 72 +17 +17 холодно 1013.5 918.6
06 16.06 штиль 0 20 км {ливн. осадки} 9/6 600 м
[Cb cap Ac trans]
+20.8 +9.5 48 +22 +28 комфорт 1011.4 917.9 +14.5 0.4
09 16.06 штиль 0 10 км 9/3 600 м
[Cb cap Ac trans Ci sp]
+22.6 +8.2 40 +24 +32 комфорт 1009.5 916.6
12 16.06 В 1 10 км 9/0
[Ci sp]
+23.0 +8.0 38 +24 +28 комфорт 1008.8 916.1
15 16.06 штиль 0 10 км 9/0
[Ci fib]
+21.0 +9.7 48 +22 +22 комфорт 1008.9 915.6 +23.9
18 16.06 штиль 0 н/о 6/0
[Ci fib]
+17.6 +9.8 60 +18 +18 прохладно 1009.0 914.7 +23.9
21 16.06 штиль 0 н/о 3/0
[Ci fib]
+15.4 +8.6 64 +15 +15 прохладно 1007.9 913.0
00 17.06 штиль 0
{3}
10 км 8/0
[Ci fib]
+13.4 +8.8 74 +13 +13 холодно 1007.2 911.8
03 17.06 штиль 0 20 км 6/0
[Ci fib]
+21.3 +10.4 50 +23 +33 комфорт 1003.1 910.5
06 17.06 штиль 0 10 км 6/3 1000 м
[Cu hum Ci fib]
+25.0 +9.8 38 +26 +42 жарко 1000.9 909.5 +13.2
09 17.06 штиль 0 10 км 5/3 1000 м
[Cu hum Ci fib]
+27.0 +10.6 36 +28 +42 жарко 999.1 908.5
12 17.06 ЮВ 1 10 км 3/3 1000 м
[Cu hum]
+27.0 +11.8 39 +28 +32 жарко 998.6 908.1
15 17.06 штиль 0 10 км 1/0
[Ci fib]
+24.5 +13.3 50 +27 +27 жарко 1000.1 908.8 +27.4
18 17.06 штиль 0 н/о ясно +22.0 +11.5 51 +24 +24 комфорт 1001.1 908.9 +27.4
21 17.06 штиль 0 н/о ясно +19.2 +9.6 54 +20 +20 тепло 1001.2 908.1
00 18.06 штиль 0
{4}
10 км 8/8 1000 м
[Cu hum]
+21.2 +8.7 45 +22 +23 комфорт 1000.7 908.3
03 18.06 ЮЗ 1 20 км в посл. час ливневой дождь 6/4 600 м
[Cb cap Ac trans]
+22.5 +12.3 52 +25 +30 комфорт 1002.5 910.4
06 18.06 штиль 0 20 км {ливн. осадки} 8/3 600 м
[Cb cap Ac As]
+29.3 +9.7 30 +29 +38 жарко 999.5 909.5 +18.0 0.5
09 18.06 Ю 1 20 км 1/1 1000 м
[Cu med, cong]
+31.1 +7.2 22 +30 +46 жарко 997.9 908.5
12 18.06 ЮЗ 1 20 км 1/1 1000 м
[Cu med, cong]
+30.6 +8.0 24 +30 +34 жарко 997.7 908.2
15 18.06 ЮВ 1 10 км 10/0
[Ci fib]
+26.6 +8.3 31 +27 +27 жарко 1000.0 909.2 +31.5

 

Местоположение метеостанции Алматы (Алматинская область, Казахстан): широта 43.23 долгота 76.93 высота над уровнем моря 851 м.

В архиве по умолчанию представлена погода в Алматы за последнюю неделю. Архивные данные за месяц целиком и за предыдущие месяцы, начиная с января 2011 года, Вы можете получить, выбрав интересующий диапазон дат из раскрывающегося списка и нажав кнопку "Ввод!".


*Определитесь, кто Вы:
робот инопланетянин человек

Внимание! Время в таблицах - всемирное. Для получения местного времени необходимо прибавить поправку, которая в Алматы равна 6 ч.

Смотрите также архив погоды в соседних городах и на ближайших метеорологических станциях:

Погода в Алматы АМС (Алматинская область, Казахстан) (4 км)
Погода в Каменском плато (Алматинская область, Казахстан) (6 км)
Погода в Медеу (Алматинская область, Казахстан) (12 км)
Погода в Карасайском (Алматинская область, Казахстан) (15 км)
Погода в Шымбулаке (Алматинская область, Казахстан) (16 км)
Погода в Большом Алматинском озере (Алматинская область, Казахстан) (18 км)
Погода в Альмереке (Алматинская область, Казахстан) (21 км)
Погода в Коныролене (Алматинская область, Казахстан) (24 км)
Погода в Рыскулово (Алматинская область, Казахстан) (30 км)
Погода в Илийском (Алматинская область, Казахстан) (33 км)

Пояснения к столбцам:

Ветер - указаны скорость ветра в м/с - средняя за 10 мин, порывы в срок и между сроками (в фигурных скобках) и направление, откуда дует ветер: С - северный, СВ - северо-восточный, В - восточный, ЮВ - юго-восточный, Ю - южный, ЮЗ - юго-западный, З - западный, СЗ - северо-западный.
Видимость - горизонтальная дальность видимости в метрах или километрах. При видимости от 1 до 10 км при отсутствии осадков обычно наблюдается дымка, при ухудшении видимости до 1 км и менее - туман. В сухую погоду видимость может ухудшаться дымом, пылью или мглою.
Явления - указаны атмосферные явления, наблюдавшиеся в срок или в последний час перед сроком; фигурными скобками обозначены явления, наблюдавшиеся между сроками (за 1-3 часа до срока); квадратными скобками обозначены град или гололедные отложения с указанием их диаметра в мм.
Облачность - указаны через наклонную черту общая и нижняя облачность в баллах и высота нижней границы облаков в метрах; квадратными скобками обозначены формы облаков: Ci - перистые, Cs - перисто-слоистые, Cc - перисто-кучевые, Ac - высококучевые, As - высокослоистые, Sc - слоисто-кучевые, Ns - слоисто-дождевые, Cu - кучевые, Cb - кучево-дождевые. Подробнее классификацию облаков см. в Атласе облаков (PDF).
T - Температура воздуха - температура, измеренная на высоте 2 м над землей.
Td - Температура точки росы - температура, при понижении до которой содержащийся в воздухе водяной пар достигнет насыщения.
f - Относительная влажность воздуха - влажноcть воздуха, измеренная на высоте 2 м над землей.
Te - Эффективная температура - температура, которую ощущает одетый по сезону человек в тени. Характеристика душности погоды. При расчете учитывается влияние влажности воздуха и скорости ветра на теплоощущения человека.
Tes - Эффективная температура на солнце - температура, которую ощущает человек, с поправкой на солнечный нагрев. Характеристика знойности погоды. Зависит от высоты солнца над горизонтом, облачности и скорости ветра. Ночью, в пасмурную погоду, а также при ветре 12 м/с и более поправка равна нулю.
P - Атмосферное давление - приведенное к уровню моря атмосферное давление.
Po - Атмосферное давление - измеренное на уровне метеостанции атмосферное давление.
Tmin - Минимальная температура - минимум температуры воздуха на высоте 2 м над землей.
Tmax - Максимальная температура - максимум температуры воздуха на высоте 2 м над землей.
R - Количество осадков - Количество выпавших осадков за период времени, мм. При наведении курсора мыши на число - период времени, за который выпало указанное количество осадков.
R24 - Количество осадков - Количество выпавших осадков за 24 часа, мм.
S - Снежный покров - Высота снежного покрова, см. При наведении курсора мыши на число - состояние снежного покрова и степень покрытия местности в баллах.